Change the Weather History Date:

Sunday, March 16, 2014

  Actual Average Record
Temperature  
Mean Temperature 13 °F 30 °F  
Max Temperature 26 °F 41 °F 66 °F (1990)
Min Temperature 0 °F 19 °F -11 °F (1918)
Degree Days  
Heating Degree Days 52 35  
Month to date heating degree days 784 610  
Since 1 July heating degree days 6816 6334  
Cooling Degree Days 0 0  
Month to date cooling degree days 0 0  
Year to date cooling degree days 0 0  
Moisture  
Dew Point 0 °F    
Average Humidity 54    
Maximum Humidity 68    
Minimum Humidity 40    
Precipitation  
Precipitation 0.01 in 0.08 in 1.00 in (1900)
Month to date precipitation 1.57 1.23  
Year to date precipitation 6.70 5.91  
Sea Level Pressure  
Sea Level Pressure 30.13 in    
Wind  
Wind Speed - (North)    
Max Wind Speed -    
Max Gust Speed -    
T = Trace of Precipitation, MM = Missing Value Source: NWS Daily Summary

Daily Weather History Graph

Daily Weather History Graph

Search for Another Location

Airport or City:

Trip Planner

Search our weather history database for the weather conditions in past years. The results will help you decide how hot, cold, wet, or windy it might be!

Date:

Astronomy

Mar. 16, 2014 Rise Set
Actual Time 6:58 AM EDT 6:55 PM EDT
Civil Twilight 6:29 AM EDT 7:24 PM EDT
Nautical Twilight 5:55 AM EDT 7:58 PM EDT
Astronomical Twilight 5:21 AM EDT 8:32 PM EDT
Moon 7:11 PM EDT (3/16) 6:39 AM EDT (3/16)
Length of Visible Light 12h 54m
Length of Day
11h 56m
Full, 100% of the Moon is Illuminated
Mar 16
Full
Mar 16
Full
Mar 23
Last Quarter
Mar 30
New
Apr 7
First Quarter

Hourly Weather History & Observations

Time (EDT) Temp. Dew Point Humidity Pressure Visibility Wind Dir Wind Speed Gust Speed Precip Events Conditions
12:54 AM 26.1 °F 17.1 °F 69% 29.87 in - North - - N/A   Unknown
1:54 AM 24.1 °F 16.0 °F 71% 29.91 in - North - - N/A   Unknown
2:54 AM 21.0 °F 12.0 °F 68% 29.95 in - North - - 0.01 in   Unknown
3:54 AM 19.0 °F 9.0 °F 65% 29.98 in - North - - N/A   Unknown
4:54 AM 16.0 °F 6.1 °F 65% 30.01 in - North - - N/A   Unknown
5:54 AM 15.1 °F 5.0 °F 64% 30.04 in - North - - N/A   Unknown
6:54 AM 12.9 °F 1.0 °F 59% 30.07 in - North - - N/A   Unknown
7:54 AM 10.9 °F 1.0 °F 64% 30.11 in - North - - N/A   Unknown
8:54 AM 10.9 °F -0.9 °F 59% 30.13 in - North - - N/A   Unknown
9:54 AM 12.0 °F -2.0 °F 53% 30.14 in - North - - N/A   Unknown
10:54 AM 12.9 °F -2.0 °F 51% 30.16 in - North - - N/A   Unknown
11:54 AM 12.9 °F -2.9 °F 49% 30.17 in - North - - N/A   Unknown
12:54 PM 15.1 °F -2.9 °F 45% 30.17 in - North - - N/A   Unknown
1:54 PM 16.0 °F -4.0 °F 41% 30.18 in - North - - N/A   Unknown
2:54 PM 16.0 °F -2.9 °F 43% 30.18 in - North - - N/A   Unknown
3:54 PM 15.1 °F -4.0 °F 43% 30.18 in - North - - N/A   Unknown
4:54 PM 15.1 °F -5.1 °F 41% 30.20 in - North - - N/A   Unknown
5:54 PM 12.9 °F -5.1 °F 45% 30.21 in - North - - N/A   Unknown
6:54 PM 12.0 °F -6.0 °F 44% 30.22 in - North - - N/A   Unknown
7:54 PM 10.0 °F -7.1 °F 46% 30.22 in - North - - N/A   Unknown
8:54 PM 9.0 °F -7.1 °F 48% 30.25 in - North - - N/A   Unknown
9:54 PM 8.1 °F -8.0 °F 48% 30.26 in - North - - N/A   Unknown
10:54 PM 7.0 °F -9.9 °F 46% 30.27 in - North - - N/A   Unknown
11:54 PM 3.0 °F -8.0 °F 60% 30.26 in - North - - N/A   Unknown